Back to catalog

SL-6 R/B(2)

AliveHEO
NORAD 7373·ROCKET BODY·🇷🇺 Russia

Launched Apr 26, 1974 from Plesetsk Cosmodrome

Loading…

Next Passes (next 24 hours)

TLE

FreshSource: Space-Track

Epoch: Sep 14, 2026, 00:19 UTC

1 07373U 74026E   26257.01348186 -.00000517  00000-0  00000-0 0  9996
2 07373  64.0447 282.3339 7048674 268.2988  17.1292  2.06589991388770

Track SL-6 R/B(2) in real time with AllMySat

Download on the App Store